Weather reports worldwide

Advertisment
Jerez De La Frontera aeropuert, Spain (8451): temperature & dewpoint: 26.10.2020 02:00:00 - 01.11.2020 02:00:00 (CET)Jerez De La Frontera aeropuert, Spain (8451): wind speed: 26.10.2020 02:00:00 - 01.11.2020 02:00:00 (CET)Jerez De La Frontera aeropuert, Spain (8451): wind direction: 26.10.2020 02:00:00 - 01.11.2020 02:00:00 (CET)Jerez De La Frontera aeropuert, Spain (8451): reduced air pressure: 26.10.2020 02:00:00 - 01.11.2020 02:00:00 (CET)Jerez De La Frontera aeropuert, Spain (8451): visibility: 26.10.2020 02:00:00 - 01.11.2020 02:00:00 (CET)
Date & Time tt [°C] td [°C] ff [km/h] ff [kn] dd ppp [hPa] vv [km]
01.11.2020 02:00:00 13,0 11,0 4 2 - - 10
01.11.2020 01:00:00 11,7 10,7 4 2 E 1024,7 1,3
01.11.2020 00:00:00 12,5 11,2 5 3 NNE 1025,2 0,9
31.10.2020 23:00:00 14,0 12,8 8 4 E 1025,1 10
31.10.2020 22:00:00 14,5 12,5 2 1 NNE 1025,1 10
31.10.2020 21:00:00 15,5 12,4 5 3 NW 1024,9 10
31.10.2020 20:00:00 17,3 13,2 9 5 WNW 1024,3 10
31.10.2020 19:00:00 19,5 13,5 11 6 W 1023,6 30
31.10.2020 18:00:00 24,1 13,0 4 2 W 1023,5 10
31.10.2020 17:00:00 25,0 12,7 8 4 WNW 1023,7 10
31.10.2020 16:00:00 25,3 13,5 11 6 NW 1023,7 10
31.10.2020 15:00:00 25,6 13,2 9 5 W 1023,7 10
31.10.2020 14:00:00 25,0 12,5 8 4 - 1024,3 10
31.10.2020 13:00:00 23,0 12,0 8 4 NW - 10
31.10.2020 12:00:00 21,9 11,9 5 3 NW 1025,9 10
31.10.2020 11:00:00 20,4 12,6 4 2 - 1026,1 10
31.10.2020 10:00:00 17,3 12,1 2 1 - 1025,6 10
31.10.2020 09:00:00 12,9 10,2 0 0 N 1025,3 10
31.10.2020 08:00:00 9,3 8,1 0 0 N 1024,8 10
31.10.2020 07:00:00 9,8 8,7 4 2 - 1024,6 10
31.10.2020 06:00:00 9,8 8,2 0 0 N 1024,2 10
31.10.2020 05:00:00 10,1 8,2 0 0 N 1023,7 1,4
31.10.2020 04:00:00 10,8 9,1 2 1 - 1023,8 10
31.10.2020 03:00:00 11,2 9,6 4 2 - 1023,9 10
31.10.2020 02:00:00 12,1 9,9 0 0 N 1024,1 10
31.10.2020 01:00:00 12,8 10,0 4 2 SE 1024,0 10
31.10.2020 00:00:00 13,7 10,1 4 2 - 1024,1 0,6
30.10.2020 23:00:00 14,0 10,6 0 0 N 1023,9 10
30.10.2020 22:00:00 14,9 10,1 0 0 N 1023,6 10
30.10.2020 21:00:00 16,6 10,9 0 0 N 1023,3 10
30.10.2020 20:00:00 18,9 10,2 0 0 N 1023,1 10
30.10.2020 19:00:00 21,3 10,4 9 5 SE 1022,5 10
30.10.2020 18:00:00 24,2 10,1 11 6 E 1022,3 10
30.10.2020 17:00:00 25,7 10,8 13 7 ENE 1022,1 10
30.10.2020 16:00:00 25,3 9,3 4 2 - 1022,2 10
30.10.2020 15:00:00 24,7 11,2 9 5 NNW 1022,4 10
30.10.2020 14:00:00 24,8 11,4 9 5 NNW 1022,9 10
30.10.2020 13:00:00 23,5 9,2 4 2 - 1023,4 10
30.10.2020 12:00:00 21,4 10,1 9 5 WNW 1023,8 10
30.10.2020 11:00:00 20,8 9,8 4 2 - 1024,0 10
30.10.2020 10:00:00 18,3 10,2 0 0 N 1024,0 10
30.10.2020 09:00:00 13,0 10,7 5 3 NNW 1023,6 10
30.10.2020 08:00:00 8,8 7,2 0 0 N 1023,2 10
30.10.2020 07:00:00 9,7 7,5 2 1 - 1023,0 10
30.10.2020 06:00:00 10,1 7,7 0 0 N 1022,7 10
30.10.2020 05:00:00 10,3 8,0 2 1 - 1022,8 10
30.10.2020 04:00:00 10,0 7,9 0 0 N 1023,2 10
30.10.2020 03:00:00 10,7 8,3 0 0 N 1023,4 10
30.10.2020 02:00:00 11,2 8,2 0 0 N 1023,3 10
30.10.2020 01:00:00 12,2 8,7 5 3 N 1023,4 10
30.10.2020 00:00:00 12,3 8,6 8 4 N 1023,7 10
29.10.2020 23:00:00 12,8 8,7 0 0 N 1023,5 10
29.10.2020 22:00:00 14,2 8,3 0 0 N 1023,3 10
29.10.2020 21:00:00 15,6 7,9 0 0 N 1023,1 10
29.10.2020 20:00:00 18,5 6,9 0 0 N 1023,1 10
29.10.2020 19:00:00 21,1 5,8 4 2 - 1022,5 10
29.10.2020 18:00:00 25,0 7,1 8 4 ESE 1022,1 10
29.10.2020 17:00:00 27,2 6,1 13 7 E 1021,9 10
29.10.2020 16:00:00 27,7 7,2 9 5 E 1021,7 10
29.10.2020 15:00:00 26,9 8,8 8 4 ENE 1022,0 10
29.10.2020 14:00:00 25,2 11,5 4 2 - 1022,9 10
29.10.2020 13:00:00 23,2 11,9 4 2 - 1023,9 10
29.10.2020 12:00:00 21,5 11,3 2 1 - 1024,4 10
29.10.2020 11:00:00 19,2 10,7 4 2 - 1024,6 10
29.10.2020 10:00:00 15,7 12,3 0 0 N 1024,8 10
29.10.2020 09:00:00 12,3 11,0 2 1 - 1024,2 10
29.10.2020 08:00:00 9,2 8,7 0 0 N 1023,6 10
29.10.2020 07:00:00 9,3 8,5 0 0 N 1023,3 10
29.10.2020 06:00:00 9,8 8,9 0 0 N 1023,1 10
29.10.2020 05:00:00 10,4 9,2 0 0 N 1022,8 10
29.10.2020 04:00:00 11,8 9,8 5 3 ENE 1022,6 10
29.10.2020 03:00:00 12,9 10,1 2 1 - 1022,7 10
29.10.2020 02:00:00 13,8 10,8 5 3 - 1022,8 10
29.10.2020 01:00:00 13,7 10,9 4 2 - 1023,0 10
29.10.2020 00:00:00 14,9 11,3 13 7 N 1023,2 10
28.10.2020 23:00:00 14,4 11,4 8 4 NNW 1023,3 10
28.10.2020 22:00:00 14,9 11,7 13 7 NNW 1023,4 35
28.10.2020 21:00:00 15,6 11,4 2 1 - 1023,0 10
28.10.2020 20:00:00 16,7 11,4 9 5 N 1022,5 10
28.10.2020 19:00:00 18,7 11,5 15 8 N 1021,7 10
28.10.2020 18:00:00 20,7 11,5 18 10 N 1021,4 10
28.10.2020 17:00:00 21,4 11,3 21 11 N 1021,5 10
28.10.2020 16:00:00 22,4 11,2 26 14 N 1021,5 10
28.10.2020 15:00:00 22,2 11,0 26 14 N 1021,7 10
28.10.2020 14:00:00 22,0 11,0 26 14 N 1022,1 10
28.10.2020 13:00:00 20,5 10,6 24 13 NNE 1022,7 50
28.10.2020 12:00:00 20,4 10,2 24 13 NNE 1023,2 10
28.10.2020 11:00:00 17,5 10,1 21 11 N 1023,0 10
28.10.2020 10:00:00 14,2 9,3 18 10 N 1023,0 50
28.10.2020 09:00:00 11,4 8,5 13 7 N 1022,4 10
28.10.2020 08:00:00 9,3 7,2 13 7 N 1021,7 10
28.10.2020 07:00:00 9,3 7,9 11 6 N 1021,5 50
28.10.2020 06:00:00 9,4 8,3 9 5 N 1021,2 10
28.10.2020 05:00:00 8,8 8,2 2 1 - 1021,2 10
28.10.2020 04:00:00 8,5 7,9 2 1 SSW 1021,3 10
28.10.2020 03:00:00 9,1 8,5 4 2 - 1021,3 10
28.10.2020 02:00:00 9,2 8,6 5 3 N 1021,6 10
28.10.2020 01:00:00 9,3 8,4 2 1 NNE 1021,8 10
28.10.2020 00:00:00 10,2 8,9 0 0 N 1022,1 10
27.10.2020 23:00:00 10,8 8,9 2 1 - 1022,0 10
27.10.2020 22:00:00 11,6 8,7 4 2 N 1022,0 30
27.10.2020 21:00:00 13,9 9,1 11 6 WNW 1021,9 10
27.10.2020 20:00:00 14,6 8,8 8 4 W 1021,7 10
27.10.2020 19:00:00 15,5 8,4 8 4 NW 1021,3 10
27.10.2020 18:00:00 18,3 6,5 11 6 N 1020,8 10
27.10.2020 17:00:00 19,4 5,8 15 8 NNW 1020,9 10
27.10.2020 16:00:00 19,9 7,0 13 7 N 1020,9 10
27.10.2020 15:00:00 19,7 7,7 15 8 NNW 1021,2 10
27.10.2020 14:00:00 19,4 6,1 11 6 N 1021,8 10
27.10.2020 13:00:00 18,8 7,6 11 6 N 1023,0 10
27.10.2020 12:00:00 17,8 8,8 13 7 N 1023,4 10
27.10.2020 11:00:00 16,3 9,0 11 6 NNW 1023,5 10
27.10.2020 10:00:00 14,1 9,8 0 0 N 1023,4 10
27.10.2020 09:00:00 9,3 8,0 0 0 N 1023,2 10
27.10.2020 08:00:00 5,9 5,5 0 0 N 1022,8 10
27.10.2020 07:00:00 6,3 5,7 0 0 N 1022,6 10
27.10.2020 06:00:00 6,3 5,7 5 3 NW 1022,4 10
27.10.2020 05:00:00 6,4 5,8 0 0 N 1022,2 10
27.10.2020 04:00:00 7,2 6,1 0 0 N 1022,2 10
27.10.2020 03:00:00 7,6 6,8 0 0 N 1022,8 10
27.10.2020 02:00:00 8,2 7,1 5 3 ENE 1022,9 10
27.10.2020 01:00:00 8,9 7,6 0 0 N 1023,3 10
27.10.2020 00:00:00 10,1 8,3 0 0 N 1023,8 10
26.10.2020 23:00:00 11,1 7,6 2 1 - 1023,8 10
26.10.2020 22:00:00 11,3 7,7 4 2 - 1023,3 10
26.10.2020 21:00:00 12,1 9,1 0 0 N 1022,9 10
26.10.2020 20:00:00 14,0 8,8 8 4 WSW 1022,5 10
26.10.2020 19:00:00 15,7 8,2 8 4 W 1022,0 40
26.10.2020 18:00:00 17,9 7,3 11 6 WNW 1021,6 10
26.10.2020 17:00:00 19,1 6,9 15 8 NW 1021,5 10
26.10.2020 16:00:00 19,3 6,8 21 11 NNW 1021,4 10
26.10.2020 15:00:00 19,6 7,5 21 11 NNW 1021,5 10
26.10.2020 14:00:00 19,6 6,9 18 10 NW 1021,7 10
26.10.2020 13:00:00 18,5 8,9 16 9 NW 1022,5 10
26.10.2020 12:00:00 17,7 9,9 18 10 NW 1022,8 10
26.10.2020 11:00:00 16,7 10,9 18 10 NNW 1022,8 10
26.10.2020 10:00:00 15,6 11,8 15 8 NW 1022,5 10
26.10.2020 09:00:00 13,9 11,7 11 6 NW 1022,0 10
26.10.2020 08:00:00 12,1 11,0 15 8 NNW 1021,2 10
26.10.2020 07:00:00 12,3 11,5 11 6 N 1020,7 10
26.10.2020 06:00:00 13,2 12,1 13 7 NNW 1020,3 10
26.10.2020 05:00:00 14,4 13,1 11 6 WNW 1020,2 10
26.10.2020 04:00:00 14,7 13,1 15 8 NW 1019,7 10
26.10.2020 03:00:00 15,3 13,0 13 7 WNW 1019,9 10
26.10.2020 02:00:00 15,3 14,8 9 5 W 1019,6 10

tt = temperature
td = dewpoint
ff = wind speed
dd = wind direction
ppp = reduced air pressure
vv = visibility

Next stations